Weather History for VTBU - December, 2012

Change the Weather History Date:

Saturday, December 8, 2012

  Actual Average Record
Temperature  
Mean Temperature 81 °F -  
Max Temperature 89 °F 88 °F 95 °F (2006)
Min Temperature 73 °F 73 °F 69 °F (1996)
Cooling Degree Days 16    
Growing Degree Days 31 (Base 50)    
Moisture  
Dew Point 72 °F    
Average Humidity 75    
Maximum Humidity 89    
Minimum Humidity 55    
Precipitation  
Precipitation 0.00 in - - ()
Sea Level Pressure  
Sea Level Pressure 29.85 in    
Wind  
Wind Speed 2 mph ()    
Max Wind Speed 7 mph    
Max Gust Speed -    
Visibility 4.4 miles    
Events      
Averages and records for this station are not official NWS values.
T = Trace of Precipitation, MM = Missing Value Source: Averaged Metar Reports

Daily Weather History Graph

Daily Weather History Graph

Search for Another Location

Airport or City:

Trip Planner

Search our weather history database for the weather conditions in past years. The results will help you decide how hot, cold, wet, or windy it might be!

Date:

Astronomy

Dec. 08, 2012 Rise Set
Actual Time 6:25 AM ICT 5:50 PM ICT
Civil Twilight 6:02 AM ICT 6:13 PM ICT
Nautical Twilight 5:36 AM ICT 6:39 PM ICT
Astronomical Twilight 5:10 AM ICT 7:05 PM ICT
Moon 1:04 AM ICT (12/8) 1:18 PM ICT (12/8)
Length of Visible Light 12h 10m
Length of Day
11h 24m
Waning Crescent, 33% of the Moon is Illuminated
Dec 8
Waning Crescent
Dec 13
New
Dec 20
First Quarter
Dec 28
Full
Jan 5
Last Quarter

Hourly Weather History & Observations

Time (ICT) Temp. Heat Index Dew Point Humidity Pressure Visibility Wind Dir Wind Speed Gust Speed Precip Events Conditions
12:00 AM 75.2 °F - 71.6 °F 89% 29.86 in 4.3 mi North 3.5 mph - N/A   Scattered Clouds
12:30 AM 75.2 °F - 71.6 °F 89% 29.86 in 4.3 mi NNE 3.5 mph - N/A   Scattered Clouds
1:00 AM 75.2 °F - 71.6 °F 89% 29.86 in 4.3 mi NE 3.5 mph - N/A   Scattered Clouds
1:30 AM 73.4 °F - 69.8 °F 88% 29.86 in 4.3 mi Calm Calm - N/A   Scattered Clouds
2:00 AM 75.2 °F - 71.6 °F 89% 29.86 in 4.3 mi NE 3.5 mph - N/A   Scattered Clouds
2:30 AM 73.4 °F - 69.8 °F 88% 29.80 in 4.3 mi Calm Calm - N/A   Scattered Clouds
3:00 AM 73.4 °F - 69.8 °F 88% 29.83 in 4.3 mi Calm Calm - N/A   Scattered Clouds
3:30 AM 73.4 °F - 69.8 °F 88% 29.83 in 4.3 mi Calm Calm - N/A   Scattered Clouds
4:00 AM 73.4 °F - 69.8 °F 88% 29.83 in 4.3 mi Calm Calm - N/A   Scattered Clouds
4:30 AM 73.4 °F - 69.8 °F 88% 29.83 in 4.3 mi Calm Calm - N/A   Scattered Clouds
5:00 AM 73.4 °F - 69.8 °F 88% 29.83 in 4.3 mi Calm Calm - N/A   Mostly Cloudy
5:30 AM 73.4 °F - 69.8 °F 88% 29.83 in 4.3 mi Calm Calm - N/A   Mostly Cloudy
6:00 AM 73.4 °F - 69.8 °F 88% 29.83 in 4.3 mi Calm Calm - N/A   Mostly Cloudy
6:30 AM 73.4 °F - 69.8 °F 88% 29.83 in 3.7 mi Calm Calm - N/A   Mostly Cloudy
7:00 AM 73.4 °F - 69.8 °F 88% 29.86 in 3.7 mi Calm Calm - N/A   Mostly Cloudy
7:30 AM 75.2 °F - 71.6 °F 89% 29.86 in 3.7 mi Calm Calm - N/A   Mostly Cloudy
8:00 AM 77.0 °F - 71.6 °F 83% 29.89 in 3.7 mi Calm Calm - N/A   Mostly Cloudy
8:30 AM 80.6 °F 85.4 °F 73.4 °F 79% 29.92 in 3.7 mi Calm Calm - N/A   Mostly Cloudy
9:00 AM 84.2 °F 92.3 °F 75.2 °F 74% 29.92 in 4.3 mi Calm Calm - N/A   Mostly Cloudy
9:30 AM 84.2 °F 90.9 °F 73.4 °F 70% 29.92 in 4.3 mi Calm Calm - N/A   Mostly Cloudy
10:00 AM 87.8 °F 93.8 °F 71.6 °F 58% 29.92 in 4.3 mi Calm Calm - N/A   Mostly Cloudy
10:30 AM 86.0 °F 90.4 °F 69.8 °F 58% 29.92 in 4.3 mi Calm Calm - N/A   Mostly Cloudy
11:00 AM 87.8 °F 93.8 °F 71.6 °F 58% 29.89 in 5.0 mi Calm Calm - N/A   Mostly Cloudy
11:30 AM 87.8 °F 93.8 °F 71.6 °F 58% 29.89 in 5.0 mi Calm Calm - N/A   Mostly Cloudy
12:00 PM 89.6 °F 98.2 °F 73.4 °F 59% 29.89 in 5.0 mi SSW 5.8 mph - N/A   Mostly Cloudy
12:30 PM 89.6 °F 96.2 °F 71.6 °F 55% 29.86 in 5.0 mi SW 6.9 mph - N/A   Mostly Cloudy
1:00 PM 89.6 °F 96.2 °F 71.6 °F 55% 29.86 in 5.6 mi SW 6.9 mph - N/A   Mostly Cloudy
1:30 PM 89.6 °F 96.2 °F 71.6 °F 55% 29.83 in 5.6 mi SW 5.8 mph - N/A   Mostly Cloudy
2:00 PM 89.6 °F 98.2 °F 73.4 °F 59% 29.83 in 5.6 mi West 4.6 mph - N/A   Mostly Cloudy
2:30 PM 89.6 °F 96.2 °F 71.6 °F 55% 29.80 in 5.6 mi SW 6.9 mph - N/A   Mostly Cloudy
3:00 PM 87.8 °F 93.8 °F 71.6 °F 58% 29.80 in 5.6 mi SW 6.9 mph - N/A   Mostly Cloudy
3:30 PM 86.0 °F 91.8 °F 71.6 °F 62% 29.80 in 5.0 mi West 6.9 mph - N/A   Mostly Cloudy
4:00 PM 84.2 °F 89.6 °F 71.6 °F 66% 29.80 in 3.7 mi SW 6.9 mph - N/A   Mostly Cloudy
4:30 PM 84.2 °F 89.6 °F 71.6 °F 66% 29.80 in 4.3 mi SSW 4.6 mph - N/A   Mostly Cloudy
5:00 PM 84.2 °F 89.6 °F 71.6 °F 66% 29.80 in 4.3 mi WSW 6.9 mph - N/A   Mostly Cloudy
5:30 PM 84.2 °F 89.6 °F 71.6 °F 66% 29.83 in 4.3 mi West 4.6 mph - N/A   Mostly Cloudy
6:00 PM 82.4 °F 87.2 °F 71.6 °F 70% 29.83 in 4.3 mi West 4.6 mph - N/A   Mostly Cloudy
6:30 PM 82.4 °F 87.2 °F 71.6 °F 70% 29.83 in 4.3 mi WSW 4.6 mph - N/A   Mostly Cloudy
7:00 PM 82.4 °F 87.2 °F 71.6 °F 70% 29.83 in 4.3 mi West 4.6 mph - N/A   Mostly Cloudy
7:30 PM 82.4 °F 87.2 °F 71.6 °F 70% 29.86 in 4.3 mi WSW 4.6 mph - N/A   Mostly Cloudy
8:00 PM 82.4 °F 87.2 °F 71.6 °F 70% 29.86 in 4.3 mi Calm Calm - N/A   Mostly Cloudy
8:30 PM 78.8 °F - 71.6 °F 78% 29.86 in 4.3 mi Calm Calm - N/A   Mostly Cloudy
9:00 PM 78.8 °F - 75.2 °F 89% 29.86 in 3.7 mi Calm Calm - N/A   Mostly Cloudy
9:30 PM 78.8 °F - 73.4 °F 83% 29.86 in 3.7 mi Calm Calm - N/A   Mostly Cloudy
10:00 PM 78.8 °F - 73.4 °F 83% 29.86 in 3.7 mi Calm Calm - N/A   Mostly Cloudy
10:30 PM 77.0 °F - 73.4 °F 89% 29.86 in 3.7 mi Calm Calm - N/A   Mostly Cloudy
11:00 PM 77.0 °F - 73.4 °F 89% 29.86 in 3.7 mi Calm Calm - N/A   Mostly Cloudy
11:30 PM 77.0 °F - 73.4 °F 89% 29.86 in 3.7 mi Calm Calm - N/A   Mostly Cloudy